Regional Weather Roundup
Issued by NWS

Home | Current Version | Previous Version | Graphics & Text | Print | Product List | Glossary On
Versions: 1 2 3 4 5 6 7 8 9 10 11 12 13 14 15 16 17 18 19 20 21 22 23 24 25 26 27 28 29 30 31 32 33 34 35 36 37 38 39 40 41 42 43 44 45 46 47 48 49 50
000
ASUS43 KFSD 301810
RWRSD

WEATHER ROUNDUP FOR SOUTH DAKOTA
NATIONAL WEATHER SERVICE SIOUX FALLS SD
100 PM CDT TUE SEP 30 2014

NOTE: "FAIR" INDICATES FEW OR NO CLOUDS BELOW 12,000 FEET WITH NO
SIGNIFICANT WEATHER AND/OR OBSTRUCTIONS TO VISIBILITY.


SDZ001>005-009-010-012>017-301900-
NORTHWEST AND NORTH CENTRAL SOUTH DAKOTA

CITY           SKY/WX    TMP DP  RH WIND       PRES   REMARKS
BUFFALO          N/A     53  52  96 N15       29.46F
FAITH            N/A     54  52  93 NE12      29.40F
MOBRIDGE       PTSUNNY   65  57  75 E23G37    29.48F
$$

SDZ012>016-024>037-041>051-057-063-072>074-301900-
SOUTHWEST AND SOUTH CENTRAL SOUTH DAKOTA

CITY           SKY/WX    TMP DP  RH WIND       PRES   REMARKS
RAPID CTY ARPT HVY RAIN  54  52  93 NW16      29.48R FOG
PIERRE         CLOUDY    70  49  47 S37G45    29.44F
CUSTER         CLOUDY    50  45  83 W20G30    29.59R
ELLSWORTH AFB  RAIN      54  54 100 NW15      29.48  FOG
PHILIP         CLOUDY    58  53  84 SW20G30   29.41R
PINE RIDGE     CLOUDY    57  49  74 W26G38    29.59R
WINNER         FAIR      73  45  36 SW29G39   29.56F
$$

SDZ004>011-016>023-039-040-301900-
NORTHEAST SOUTH DAKOTA

CITY           SKY/WX    TMP DP  RH WIND       PRES   REMARKS
ABERDEEN       CLOUDY    58  54  86 SE17G28   29.66F
WATERTOWN      CLOUDY    52  49  89 SE15G25   29.75F
SISSETON         N/A     48  45  89 SE16G26   29.79F
$$

SDZ017-020-022-023-036>040-048>070-301900-
SOUTHEAST SOUTH DAKOTA

CITY           SKY/WX    TMP DP  RH WIND       PRES   REMARKS
SIOUX FALLS    LGT RAIN  60  58  92 SE18G26   29.78F FOG
HURON          CLOUDY    64  59  83 SE20G31   29.64F
CHAMBERLAIN    SUNNY     73  49  42 S25G32    29.57F
MITCHELL       MOSUNNY   71  62  73 SE22G31   29.67F
YANKTON        CLOUDY    72  63  73 S17G25    29.73F
$$

ABBREVIATIONS USED IN REMARKS
   TC - TEMPERATURE IN CELSIUS
  WCI - WIND CHILL INDEX
   HX - HEAT INDEX
  VSB - VISIBILITY



USA.gov is the U.S. government's official web portal to all federal, state and local government web resources and services.